Location: Limerick
(52.6800°N, 8.6400°W)
Time: 16:26:26
(UTC+00:00)

Sapphire - Visible Passes

Search period start: 26 January 2015 00:00
Search period end: 05 February 2015 00:00
Orbit: 785 x 798 km, 67.1° (Epoch: 25 January)

Date Brightness Start Highest point End Pass type
(mag) Time Alt. Az. Time Alt. Az. Time Alt. Az.
26 Jan ? 04:49:51 10° SE 04:53:08 17° ESE 04:56:37 10° ENE visible
26 Jan ? 06:30:25 10° SSW 06:35:50 80° SE 06:41:20 10° NE visible
27 Jan ? 04:20:42 10° SE 04:22:51 13° ESE 04:25:14 10° ENE visible
27 Jan ? 06:00:00 10° SSW 06:05:21 64° ESE 06:10:46 10° NE visible
27 Jan ? 07:44:08 10° WSW 07:49:10 36° NW 07:54:12 10° NNE visible
28 Jan ? 05:31:31 21° S 05:34:54 50° ESE 05:40:11 10° NE visible
28 Jan ? 07:13:18 10° WSW 07:18:30 43° NW 07:23:42 10° NNE visible
29 Jan ? 05:02:47 31° SSE 05:04:29 39° ESE 05:09:33 10° NE visible
29 Jan ? 06:43:35 16° WSW 06:47:52 51° NW 06:53:12 10° NE visible
30 Jan ? 04:33:49 30° ESE 04:34:05 30° ESE 04:38:51 10° NE visible
30 Jan ? 06:14:36 30° WSW 06:17:15 63° NW 06:22:42 10° NE visible
31 Jan ? 04:04:40 23° E 04:04:40 23° E 04:08:03 10° ENE visible
31 Jan ? 05:45:26 54° WSW 05:46:42 77° NW 05:52:11 10° NE visible
31 Jan ? 07:26:23 10° W 07:30:59 26° NNW 07:35:33 10° NNE visible
01 Feb ? 03:35:23 15° E 03:35:23 15° E 03:37:06 10° ENE visible
01 Feb ? 05:16:09 86° SE 05:16:10 86° SE 05:21:40 10° NE visible
01 Feb ? 06:56:55 17° W 07:00:14 30° NNW 07:05:02 10° NNE visible
02 Feb ? 04:46:46 54° ENE 04:46:46 54° ENE 04:51:07 10° NE visible
02 Feb ? 06:27:31 26° WNW 06:29:32 35° NNW 06:34:31 10° NNE visible
03 Feb ? 04:17:18 34° ENE 04:17:18 34° ENE 04:20:32 10° NE visible
03 Feb ? 05:58:03 38° WNW 05:58:51 41° NW 06:04:01 10° NNE visible
04 Feb ? 03:47:46 23° ENE 03:47:46 23° ENE 03:49:54 10° NE visible
04 Feb ? 05:28:31 48° NNW 05:28:31 48° NNW 05:33:31 10° NE visible
04 Feb ? 07:09:16 12° WNW 07:12:56 21° NNW 07:17:02 10° NNE visible
